Regional Weather Roundup
Issued by NWS Wakefield, VA

Home | Current Version | Previous Version | Text Only | Print | Product List | Glossary Off
Versions: 1 2 3 4 5 6 7 8 9 10 11 12 13 14 15 16 17 18 19 20 21 22 23 24 25 26 27 28 29 30 31 32 33 34 35 36 37 38 39 40 41 42 43 44 45 46 47 48 49 50

000
ASUS41 KAKQ 300610
RWRAKQ

REGIONAL WEATHER ROUNDUP
NATIONAL WEATHER SERVICE WAKEFIELD VA
200 AM EDT SAT AUG 30 2014

Note: "fair" indicates few or no clouds below 12,000 feet with no
significant weather and/or obstructions to visibility. * = Denotes
station may not report precipitation (e.g., rain,snow,etc.),
thunder or fog.

VAZ042-051-052>054-056-300700-
NORTHERN VIRGINIA

CITY           SKY/WX    TMP DP  RH WIND       PRES   REMARKS
WASH NATIONAL  MOCLDY    71  61  70 S6        30.23S
DULLES         CLOUDY    67  58  72 CALM      30.22F
FORT BELVOIR   FAIR      63  60  91 E1        30.22F
QUANTICO       CLOUDY    71  63  75 S13       30.22F
FREDERICKSBRG* FAIR      66  61  85 CALM      30.20F
STAFFORD*      CLOUDY    62  62 100 CALM      30.25F
WARRENTON      CLOUDY    67  65  96 CALM      30.22S
CULPEPER*      MOCLDY   N/A N/A N/A CALM      30.22F
MANASSAS*      CLOUDY    68  63  83 CALM      30.22F
LEESBURG*      CLOUDY    66  61  82 CALM      30.23F
WINCHESTER     CLOUDY    70  55  60 CALM      30.21S
$$

VAZ048-049-060>072-079>083-300700-
CENTRAL AND SOUTH CENTRAL VIRGINIA...AND NORTH CENTRAL NORTH CAROLINA

CITY           SKY/WX    TMP DP  RH WIND       PRES   REMARKS
RICHMOND       MOCLDY    69  63  81 NE5       30.21S
CHESTERFIELD*  CLOUDY   N/A N/A N/A SE3       30.22S
PETERSBURG*    CLOUDY    70  62  75 CALM      30.21S
HANOVER        MOCLDY    66  62  87 E5        30.23S
TAPPAHANNOCK*  CLOUDY    66  62  85 CALM      30.22F
CHARLOTTSVILLE CLOUDY    68  62  81 N5        30.21F
ORANGE*        MOCLDY    64  61  88 CALM      30.23S
LOUISA*        CLOUDY    68  61  77 SE3       30.20F
FARMVILLE*     CLOUDY    72  70  94 CALM      30.19S
SOUTH HILL*      N/A     73  70  88 CALM      30.26S
ROANOKE RAPIDS CLOUDY    70  64  83 CALM      30.19F
RALEIGH        MOCLDY    74  69  85 E7        30.19R
$$

VAZ088>098-300700-
SOUTHEAST VIRGINIA

CITY           SKY/WX    TMP DP  RH WIND       PRES   REMARKS
NORFOLK        CLOUDY    74  63  68 SE5       30.20F
VIRGINIA BEACH CLOUDY    74  64  71 SE8       30.19F
NORFOLK NAVAL  MOCLDY    74  64  71 SE6       30.21F
WEST POINT*    FAIR      66  61  83 CALM      30.22F
NEWPORT NEWS   CLOUDY    74  63  68 CALM      30.20F
LANGLEY AFB    CLOUDY    75  63  66 SE6       30.20F
FORT EUSTIS    CLOUDY    74  60  62 E6        30.18F
WILLIAMSBURG*  MOCLDY    73  64  73 CALM      30.20F
FRANKLIN*      MOCLDY    72  64  78 CALM      30.20S
WAKEFIELD      CLOUDY    71  65  81 CALM      30.20F
$$

VAZ020-022-025-037-045-300700-
WESTERN AND SOUTHWEST VIRGINIA

CITY           SKY/WX    TMP DP  RH WIND       PRES   REMARKS
STAUNTON*      CLOUDY    70  62  77 SW5       30.23F
HOT SPRINGS VA FOG       62  62 100 S6        30.34S VSB<1/4
LYNCHBURG      CLOUDY    71  69  93 CALM      30.23S
DANVILLE       MOCLDY    74  69  85 CALM      30.20S
MARTINSVILLE   CLOUDY    71  70  98 CALM      30.24S FOG
ROANOKE        CLOUDY    73  68  84 SE7       30.24R
BLACKSBURG     CLOUDY    70  70 100 SE3       30.29R FOG
DUBLIN*        CLOUDY    69  69 100 CALM      30.28R FOG
MARION*        FAIR     N/A N/A N/A NE5       30.29S HAZE
HILLSVILLE*    CLOUDY    67  66  97 SE3       30.29S FOG
RICHLANDS*     MOCLDY    75  65  71 S3        30.25R
WISE*          FAIR      68  68 100 W3        30.25R
ABINGDON*      FAIR      69  68  95 CALM      30.22S
$$

MDZ021>025-VAZ099-100-300700-
SOUTHERN MARYLAND AND THE DELMARVA PENINSULA

CITY           SKY/WX    TMP DP  RH WIND       PRES   REMARKS
PATUXENT RIVER CLOUDY    71  59  65 SE7       30.22F
BAY BRIDGE APT   N/A     70  63  78 SE6       30.23S
LEONARDTOWN    MOCLDY    64  59  82 CALM      30.23F
DOVER          FAIR      64  61  90 SW1       30.22S
GEORGETOWN     FAIR      62  59  90 MISG      30.24S
EASTON         CLOUDY    65  65 100 CALM      30.27S
CAMBRIDGE      FAIR      63  59  88 CALM      30.23S
SALISBURY      FAIR      61  56  83 CALM      30.23F
OCEAN CITY     FAIR      70  61  73 SE3       30.22F
WALLOPS ISLAND FAIR      64  59  83 CALM      30.23F
ACCOMACK*      NOT AVBL
$$

NCZ012>017-030>032-300700-
EASTERN NORTH CAROLINA

CITY           SKY/WX    TMP DP  RH WIND       PRES   REMARKS
ELIZABETH CITY CLOUDY    74  65  73 E6        30.20S
AHOSKIE*       FAIR      70  66  86 CALM      30.20F
EDENTON*       CLOUDY    72  68  89 N5        30.19F
CURRITUCK*     CLOUDY    75  62  62 E6        30.20F
KILL DEVIL HLS CLOUDY    75  67  76 E5        30.19S HAZE
MANTEO         CLOUDY    74  68  79 E8        30.19F
CAPE HATTERAS  FAIR      75  75 100 E5        30.17S
GOLDSBORO      FAIR      72  71  98 NE7       30.16S
WASHINGTON     FAIR      69  67  92 CALM      30.19S
GREENVILLE     MOCLDY    70  68  94 CALM      30.20S
NEW BERN       FAIR      75  70  84 CALM      30.18F
WILMINGTON     FAIR      75  71  87 CALM      30.15F
$$

VAZ048-300700-
ELSEWHERE

CITY           SKY/WX    TMP DP  RH WIND       PRES   REMARKS
HARRISBURG PA  FAIR      65  56  72 S6        30.22S
BALTIMORE      MOCLDY    68  61  78 CALM      30.23S
ANNAPOLIS      CLOUDY    71  63  75 SE9       30.23R
ANDREWS AFB    FAIR      64  61  92 SE6       30.22F
WILMINGTON DE  FAIR      66  59  78 SE5       30.25S
PHILADELPHIA   FAIR      65  58  78 CALM      30.25S
WILDWOOD NJ*   FAIR      59  55  88 CALM      30.25S
ATLANTIC CITY  FAIR      56  54  93 CALM      30.24F
HENDERSON NC   CLOUDY    72  64  78 E5        30.21R
GREENSBORO     CLOUDY    75  71  87 SE7       30.19S
ROCKY MOUNT    CLOUDY    72  67  84 CALM      30.19S
FAYETTEVILLE   FAIR      73  70  90 CALM      30.17R
CHARLOTTE      FAIR      76  71  85 SE6       30.18S
$$

VAZ100-300700-
MARINE

STATION/POSITION TIME  TEMP    WIND        PRES    WAVE   SWELL
                       AIR SEA DIR/SP/G            HT/PER HT/PER
                 (UTC) (F)     (DEG/KT/KT) (MB)    (FT/S) (FT/S)
44066 TX TWR #4  0600   70 72  130/ 10/ 12 1024.4R   3/ 8   3/ 8
CAPE MAY NJ      0600   67 79  100/  2/  3 1023.3F
LEWES DE         0600   71 76  140/  4/  7 1023.4S
15NM E FENWICK I 0600   72 73              1023.6S   3/ 9
OCEAN-CITY-INLET 0600   72 75  130/  4/  6 1023.1F
WACHAPREAGUE VA  0600   69 80   30/  1/  2 1023.2F
THOMAS POINT MD  0600   70 77  150/ 12/ 13 1024.4S
GOOSES REEF MD   0600   71     160/ 10/ 12 1024.0F
COVE POINT MD    0600   72     140/ 11/ 14 1023.4S
SOLOMONS ISLAND  0600      79                N/A
BISHOPS HEAD MD  0600   71 76  110/  7/  8 1023.0F
PINEY POINT MD   0600          140/  8/ 10   N/A
POTOMAC MD       0600   74     140/  8/ 10 1022.6S
CAMBRIDGE MD     0600   65 78  130/  1/  2 1023.4F
LEWISETTA VA     0600   72 78  150/  4/  5 1022.8S
RAPPAHANNOCK LGT 0600          100/  8/  8 1023.6S
STINGRAY PT      0600   74     120/ 10/ 14   N/A
YORK RVR RNG VA  0600   76     140/ 12/ 13 1022.2F
YORKTOWN VA      0600   74 80  160/  3/  4 1022.4F
JAMESTOWN VA     0600   74     110/  8/ 10   N/A
DOMINION TERM VA 0600   75     110/ 12/ 16 1022.5F
KIPTOPEKE VA     0600      81  120/  5/  6   N/A
CHES BAY BRIDGE  0600   75 77  100/  8/ 10 1022.3F
CAPE HENRY VA    0600   75     110/ 10/ 12 1021.6F
CHESAPEAKE LGHT  0500   74     110/ 10/ 11 1023.8R
WILLOUBY STN VA  0600   75     100/  6/  7 1021.5F
S CRANEY ISL VA  0600          100/  6/  8 1022.5S
CAPE HENRY BUOY  0600      77                N/A     2/ 8
1ST LANDING BUOY 0600   76     110/ 10/ 12 1022.4F
CAPE CHARLES BUO 0600      76                N/A     2/ 9   2/ 9
OFFSHORE WE BUOY 0600      75                N/A     2/ 8   2/ 8
64NM E OF VA BCH 0600   76 76   80/  8/  8 1022.6S   3/ 8   2/ 8
DUCK PIER NC     0600   76 78   70/ 12/ 13 1021.8F
44056 DUCK FRF   0600                        N/A     3/ 8
OREGON INLET NC  0600   76 79   50/  8/ 11 1022.1F
HATTERAS NC      0600   80 82  100/  3/  5 1022.1F
DIAMOND SHLS NC  0600   79     310/  4/  4 1021.5S   4/ 8   3/ 8
CAPE LOOKOUT NC  0500   80      90/  2/  2 1021.5R
$$



USA.gov is the U.S. government's official web portal to all federal, state and local government web resources and services.